www.pogodaiklimat.ru

Погода и климат >> Архив погоды >> Дания >> Торсхавн


ПОГОДА в Торсхавне

  • Прогноз погоды в Торсхавне
  • Монитор погоды в Торсхавне

АРХИВ ПОГОДЫ в Торсхавне

Время (UTC), дата Ветер
(напр.,м/с)
 
Видим.   Явления Облачность Т
(С)
Тd
(С)
f
(%)
Тe
(С)
Тes
(С)
Комфортность P
(гПа)
Po
(гПа)
Тmin
(С)
Tmax
(С)
R
(мм)
R24
(мм)
S
(см)
10 11.07 ЮЗ 1 100 м туман 10/10 30 м
[]
+10.3 +10.3 100 +11 +11 1011.6 1004.8
11 11.07 З 1 100 м туман 10/10 30 м
[]
+10.4 +10.4 100 +11 +11 1011.7 1004.9
12 11.07 штиль 0 100 м туман ?/? +10.6 +10.6 100 +10 +10 1011.8 1005.0
13 11.07 СЗ 1 200 м туман 10/10 30 м
[]
+10.8 +10.8 100 +11 +11 1012.2 1005.4
14 11.07 С 1 200 м туман 10/10 30 м
[]
+10.9 +10.9 100 +10 +10 1012.3 1005.5
15 11.07 С 2 100 м туман ?/? +10.9 +10.9 100 +10 +10 1012.3 1005.5
16 11.07 З 1 100 м туман 10/10 30 м
[]
+10.7 +10.7 100 +11 +11 1012.7 1005.9
17 11.07 СЗ 1 200 м туман 10/10 30 м
[]
+10.3 +10.3 100 +10 +10 1013.1 1006.3
18 11.07 З 1 300 м туман ?/? +10.1 +10.1 100 +10 +10 1013.3 1006.5 +9.8 +11.0
19 11.07 СЗ 1 200 м туман 10/10 30 м
[]
+10.1 +10.1 100 +9 +9 1013.6 1006.8
20 11.07 С 1 6000 м в посл. час туман {дымка} 10/10 30 м
[]
+10.3 +10.3 100 +11 +11 1013.7 1006.9
21 11.07 С 1 5000 м дымка {туман} 9/9 60 м
[]
+10.2 +10.2 100 +10 +10 1014.1 1007.3
22 11.07 С 2 4900 м дымка 9/9 30 м
[]
+10.1 +10.1 100 +9 +9 1014.4 1007.6
23 11.07 С 1 н/о 10/10 60 м
[]
+10.1 +10.1 100 +9 +9 1014.6 1007.8
00 12.07 штиль 0 9000 м дымка {туман} 10/10 60 м
[]
+10.0 +10.0 100 +9 +9 1014.9 1008.1
01 12.07 СЗ 1 10 км 10/10 60 м
[]
+10.0 +10.0 100 +9 +9 1015.1 1008.3
02 12.07 штиль 0 4800 м дымка 10/10 60 м
[]
+9.8 +9.8 100 +9 +9 1015.3 1008.5
03 12.07 штиль 0 6000 м дымка 10/10 30 м
[]
+9.8 +9.8 100 +9 +9 1015.6 1008.8
04 12.07 штиль 0 7000 м дымка 10/10 60 м
[]
+9.9 +9.9 100 +9 +9 1015.8 1009.0
05 12.07 З 1 2500 м дымка 10/10 60 м
[]
+9.8 +9.7 99 +10 +10 1015.9 1009.1
06 12.07 штиль 0 200 м туман {дымка} ?/? +9.7 +9.7 100 +9 +9 1016.1 1009.3 +9.6 +10.4
07 12.07 С 1 10 км в посл. час туман 10/10 30 м
[]
+9.5 +9.5 100 +10 +10 1016.7 1009.9
08 12.07 СЗ 1 25 км 10/10 180 м
[]
+9.8 +9.8 100 +10 +10 1017.0 1010.1
09 12.07 СЗ 1 13 км {туман} 9/9 30 м
[]
+9.9 +9.8 99 +9 +10 1017.4 1010.5
10 12.07 СЗ 1 29 км 10/10 180 м
[]
+10.0 +9.9 99 +9 +9 1017.5 1010.7
11 12.07 С 1 30 км 10/10 180 м
[]
+10.5 +9.8 95 +10 +10 1017.7 1010.9
12 12.07 СВ 1 35 км {туман} 10/10 270 м
[]
+11.0 +9.1 88 +11 +11 1018.1 1011.3
13 12.07 С 1 30 км 10/10 330 м
[]
+11.4 +9.0 85 +11 +11 1018.2 1011.4
14 12.07 СЗ 1 30 км 10/10 270 м
[]
+10.9 +9.4 90 +10 +10 1018.4 1011.5
15 12.07 С 1 35 км 10/10 300 м
[]
+11.1 +9.2 88 +11 +11 1018.6 1011.8
16 12.07 СВ 2 35 км 10/10 360 м
[]
+11.0 +9.3 89 +10 +10 1018.6 1011.7
17 12.07 СВ 2 28 км 10/10 360 м
[]
+10.5 +9.4 93 +9 +9 1018.6 1011.8
18 12.07 СВ 2 40 км 10/10 330 м
[]
+10.8 +9.2 90 +10 +10 1018.6 1011.8 +9.5 +11.5
19 12.07 В 1 35 км 10/10 270 м
[]
+10.5 +9.3 92 +10 +10 1018.8 1012.0
20 12.07 СВ 1 30 км 10/10 300 м
[]
+10.4 +9.3 93 +10 +10 1019.0 1012.2
21 12.07 СВ 1 35 км 10/10 300 м
[]
+10.3 +9.3 94 +10 +10 1019.2 1012.3
22 12.07 В 1 13 км 10/10 30 м
[]
+10.0 +9.5 97 +9 +9 1019.4 1012.5
23 12.07 СВ 1 900 м туман {дымка} 10/10 30 м
[]
+9.8 +9.7 99 +10 +10 1019.4 1012.6
00 13.07 С 1 200 м туман {дымка} ?/? +9.8 +9.8 100 +10 +10 1019.4 1012.6
01 13.07 СВ 1 400 м туман 10/10 60 м
[]
+9.9 +9.8 99 +10 +10 1019.6 1012.8
02 13.07 С 1 200 м туман 10/10 60 м
[]
+9.8 +9.8 100 +10 +10 1019.8 1012.9
03 13.07 штиль 0 100 м туман ?/? +9.6 +9.6 100 +9 +9 1019.7 1012.8
04 13.07 штиль 0 100 м туман 10/10 30 м
[]
+9.6 +9.6 100 +9 +9 1019.6 1012.8
05 13.07 СЗ 1 100 м туман 10/10 30 м
[]
+9.6 +9.6 100 +10 +10 1020.0 1013.2
06 13.07 СЗ 1 100 м туман ?/? +10.0 +10.0 100 +10 +10 1020.1 1013.3 +9.5 +10.8
07 13.07 СВ 1 400 м туман 10/10 30 м
[]
+10.2 +10.1 99 +10 +10 1020.3 1013.5
08 13.07 С 1 1300 м в посл. час туман 9/9 30 м
[]
+10.2 +10.2 100 +10 +10 1020.8 1014.0
09 13.07 С 1 700 м туман 9/9 30 м
[]
+10.4 +10.4 100 +11 +12 1021.3 1014.5
10 13.07 СЗ 1 200 м туман 10/10 30 м
[]
+10.2 +10.2 100 +10 +10 1021.6 1014.7
11 13.07 С 1 3000 м в посл. час туман 9/9 30 м
[]
+10.6 +10.6 100 +11 +12 1021.7 1014.8
12 13.07 СВ 1 5000 м дымка {туман} 9/9 30 м
[]
+10.6 +10.5 99 +10 +12 1022.0 1015.1
13 13.07 10 км 9/9 30 м
[]
+11.0 +10.8 99 1022.3 1015.4
14 13.07 С 1 5000 м дымка 9/9 30 м
[]
+10.9 +10.6 98 +11 +13 1022.6 1015.7
15 13.07 СЗ 1 12 км {дымка} 9/9 30 м
[]
+11.8 +11.2 96 +12 +13 1022.7 1015.8
17 13.07 СЗ 1 14 км 6/6 300 м
[]
+11.7 +10.8 94 +11 +14 1023.0 1016.1
18 13.07 СЗ 1 17 км {дымка} 9/9 300 м
[]
+11.7 +11.1 96 +12 +13 1023.2 1016.3 +9.9 +12.6
19 13.07 Ю 1 50 км 6/6 600 м
[]
+15.0 +12.3 84 +15 +16 1023.1 1016.4
20 13.07 ЮВ 2 45 км 9/9 210 м
[]
+13.1 +12.0 93 +13 +13 1023.2 1016.4
21 13.07 СЗ 1 4000 м дымка 6/6 60 м
[]
+10.4 +10.2 99 +11 +11 1023.4 1016.5
22 13.07 СЗ 1 2500 м дымка 9/9 120 м
[]
+10.4 +10.3 99 +11 +11 1023.7 1016.9
23 13.07 Ю 1 1400 м туман {дымка} 9/9 240 м
[]
+10.9 +10.9 100 +11 +11 1023.7 1016.9
00 14.07 Ю 2 50 км {туман, дымка} 9/9 240 м
[]
+11.8 +9.9 88 +11 +11 1023.8 1016.9
01 14.07 ЮВ 3 50 км 9/9 750 м
[]
+10.9 +9.6 92 +9 +9 1024.1 1017.2
02 14.07 Ю 2 50 км 4/4 540 м
[]
+10.7 +9.2 90 +9 +9 1024.0 1017.1
03 14.07 Ю 2 8000 м дымка 9/9 300 м
[]
+10.6 +9.6 94 +9 +9 1023.8 1016.9
04 14.07 Ю 2 7000 м дымка 9/9 270 м
[]
+10.6 +9.6 94 +9 +9 1023.8 1016.9
05 14.07 Ю 2 50 км 9/9 570 м
[]
+10.7 +9.1 90 +9 +9 1023.5 1016.6
06 14.07 Ю 2 8000 м дымка 9/9 210 м
[]
+10.3 +9.2 93 +9 +9 1023.6 1016.8 +10.2 +15.3
07 14.07 Ю 2 50 км 9/9 360 м
[]
+11.2 +9.1 87 +10 +11 1023.8 1016.9
08 14.07 Ю 2 40 км 9/9 400 м
[]
+11.6 +9.3 86 +11 +11 1024.1 1017.2
09 14.07 ЮВ 2 40 км {дымка} 9/9 450 м
[]
+11.7 +8.9 83 +11 +11 1023.8 1017.0
10 14.07 ЮВ 2 40 км 9/9 480 м
[]
+13.6 +10.1 79 +13 +14 1023.7 1016.9
11 14.07 ЮВ 2 40 км 9/9 360 м
[]
+12.6 +9.8 83 +12 +13 1023.9 1017.0
12 14.07 ЮВ 1 16 км {дымка} 9/9 270 м
[]
+12.4 +10.5 88 +12 +14 1023.8 1017.0
13 14.07 ЮЗ 1 18 км 9/9 210 м
[]
+12.8 +11.0 89 +14 +15 1023.9 1017.1
14 14.07 ЮВ 3 8000 м дымка 9/9 180 м
[]
+13.3 +11.4 88 +12 +13 1023.3 1016.6
15 14.07 ЮВ 2 6000 м дымка 10/10 60 м
[]
+12.6 +11.4 92 +12 +12 1023.2 1016.4
16 14.07 ЮВ 4 4200 м дымка 10/10 90 м
[]
+12.7 +11.7 94 +11 +11 1022.7 1015.9
17 14.07 Ю 2 11 км 10/10 90 м
[]
+13.6 +12.1 91 +13 +13 1022.6 1015.8
18 14.07 Ю 1 30 км {дымка} 10/10 150 м
[]
+14.4 +12.7 90 +15 +15 1022.3 1015.6 +10.3 +14.6
19 14.07 ЮВ 4 19 км 10/10 930 м
[]
+13.5 +11.7 89 +12 +12 1022.0 1015.3
20 14.07 Ю 3 50 км 9/9 570 м
[]
+13.5 +12.3 92 +12 +12 1021.9 1015.1
21 14.07 Ю 3 18 км {дымка} 9/9 660 м
[]
+13.3 +12.2 93 +12 +12 1021.5 1014.7
22 14.07 Ю 2 50 км 9/0 2000 м
[]
+13.7 +12.5 92 +13 +13 1021.4 1014.6
23 14.07 СЗ 1 50 км 9/9 1500 м
[]
+13.9 +12.6 92 +15 +15 1021.5 1014.8
00 15.07 СВ 1 50 км {дымка} 9/9 300 м
[]
+14.3 +12.8 91 +15 +15 1021.2 1014.5
01 15.07 ЮЗ 1 50 км 10/10 330 м
[]
+14.7 +13.3 91 +16 +16 1021.5 1014.7
02 15.07 С 1 50 км 10/10 540 м
[]
+14.1 +13.1 94 +15 +15 1021.2 1014.5
03 15.07 Ю 1 50 км 10/10 300 м
[]
+14.4 +13.3 93 +15 +15 1021.1 1014.4
04 15.07 ЮЗ 1 50 км 10/10 420 м
[]
+14.9 +13.4 91 +16 +16 1020.9 1014.2
05 15.07 С 1 50 км 10/10 480 м
[]
+13.4 +12.6 95 +14 +14 1020.8 1014.1
06 15.07 С 1 35 км 9/9 500 м
[]
+13.4 +12.5 94 +14 +14 1020.6 1013.8 +13.0 +15.2
07 15.07 СЗ 1 50 км 9/9 450 м
[]
+14.5 +12.9 90 +16 +16 1020.6 1013.9
08 15.07 СЗ 1 40 км 9/9 420 м
[]
+13.8 +12.6 92 +15 +15 1020.9 1014.1
09 15.07 СЗ 1 40 км 10/10 400 м
[]
+14.0 +12.8 92 +15 +15 1020.8 1014.1
10 15.07 С 1 30 км 9/9 400 м
[]
+14.6 +13.0 90 +15 +16 1020.5 1013.8
11 15.07 ЮВ 2 35 км 9/9 330 м
[]
+15.7 +13.6 87 +16 +17 1020.2 1013.4
12 15.07 С 1 30 км 10/10 400 м
[]
+14.8 +12.9 88 +15 +15 1020.2 1013.5
13 15.07 З 1 28 км слаб. ливневой дождь 9/9 420 м
[]
+16.1 +14.5 90 +17 +19 1020.3 1013.6
14 15.07 С 1 35 км {ливн. осадки} 10/10 360 м
[]
+14.7 +12.4 86 +16 +16 1020.1 1013.4
15 15.07 СЗ 1 10 км в посл. час дождь {ливн. осадки} 10/10 330 м
[]
+14.2 +13.9 98 +14 +14 1019.8 1013.1 0.9
16 15.07 СЗ 1 10 км 10/10 120 м
[]
+12.2 +11.8 97 +12 +12 1019.9 1013.1
17 15.07 З 1 11 км 9/9 30 м
[]
+12.3 +12.0 98 +13 +14 1019.8 1013.1
18 15.07 СЗ 1 14 км {ливн. осадки, дождь} 10/10 120 м
[]
+13.0 +12.5 97 +14 +14 1019.4 1012.6 +12.1 +16.8
19 15.07 СЗ 1 1300 м туман {дымка} 10/10 60 м
[]
+11.5 +11.4 99 +12 +12 1019.4 1012.6
20 15.07 СЗ 1 6000 м дымка {туман} 10/10 60 м
[]
+12.1 +11.9 99 +13 +13 1019.0 1012.2
21 15.07 С 1 8000 м дымка {туман} 10/10 120 м
[]
+11.6 +11.3 98 +12 +12 1018.7 1011.9
22 15.07 СЗ 1 1000 м дымка {туман} 10/10 120 м
[]
+11.2 +11.1 99 +12 +12 1018.5 1011.6
23 15.07 Ю 1 400 м туман {дымка} 10/10 30 м
[]
+11.3 +11.3 100 +12 +12 1018.0 1011.2
00 16.07 В 1 100 м туман {дымка} ?/? +11.5 +11.5 100 +12 +12 1017.8 1011.0
01 16.07 СВ 1 1000 м в посл. час туман {дымка} 10/10 60 м
[]
+10.9 +10.9 100 +11 +11 1017.6 1010.8
02 16.07 СВ 1 100 м туман 10/10 30 м
[]
+10.8 +10.8 100 +11 +11 1017.2 1010.4
03 16.07 С 1 100 м туман {дымка} ?/? +10.7 +10.7 100 +11 +11 1016.7 1009.9
04 16.07 С 1 100 м туман 10/10 30 м
[]
+10.4 +10.4 100 +11 +11 1016.0 1009.2
05 16.07 З 1 100 м туман 10/10 30 м
[]
+10.6 +10.6 100 +11 +11 1015.5 1008.7
06 16.07 СЗ 1 100 м туман {дымка} 10/10 60 м
[]
+10.4 +10.4 100 +11 +11 1015.2 1008.4 +10.3 +13.0
07 16.07 СЗ 1 200 м туман 10/10 30 м
[]
+10.6 +10.6 100 +11 +11 1014.9 1008.1
08 16.07 Ю 1 200 м туман 10/10 30 м
[]
+11.8 +11.8 100 +12 +12 1014.5 1007.7
09 16.07 С 1 9000 м в посл. час туман 9/9 30 м
[]
+11.5 +11.5 100 +12 +13 1014.3 1007.5
10 16.07 С 1 600 м туман 9/9 30 м
[]
+10.8 +10.8 100 +10 +11 1013.9 1007.1
11 16.07 С 1 9000 м в посл. час туман 9/9 30 м
[]
+11.3 +11.3 100 +11 +12 1013.6 1006.8
12 16.07 С 1 13 км {туман, дымка} 9/9 30 м
[]
+11.4 +11.4 100 +12 +13 1013.3 1006.5
14 16.07 СВ 1 700 м туман {дымка} 10/10 30 м
[]
+11.7 +11.6 99 +11 +11 1012.7 1005.9
15 16.07 СВ 2 2000 м в посл. час туман {дымка} ?/? +11.7 +11.5 99 +11 +11 1012.3 1005.5
16 16.07 СВ 2 7000 м дымка 10/10 30 м
[]
+12.1 +11.7 97 +11 +11 1011.8 1005.0
17 16.07 В 1 3100 м в посл. час туман {дымка} 9/9 30 м
[]
+12.7 +12.7 100 +13 +13 1011.3 1004.6
18 16.07 В 1 27 км {туман, дымка} 1/1 330 м
[]
+15.1 +12.8 86 +16 +20 1010.9 1004.2 +10.1 +15.1
19 16.07 СЗ 1 12 км 10/10 480 м
[]
+11.8 +11.4 97 +11 +11 1010.8 1004.1
20 16.07 В 1 15 км в посл. час морось {ливн. осадки, дождь} 9/9 180 м
[]
+12.7 +12.4 98 +13 +13 1010.6 1003.9
21 16.07 СЗ 1 1000 м туман {ливн. осадки, дождь} 9/9 150 м
[]
+11.0 +10.9 99 +11 +11 1010.4 1003.7 0.1
22 16.07 СЗ 1 300 м слаб. морось {дождь} 9/9 180 м
[]
+10.7 +10.7 100 +10 +10 1010.2 1003.4
23 16.07 С 1 400 м туман {ливн. осадки} 10/10 210 м
[]
+10.7 +10.6 99 +10 +10 1009.9 1003.2
00 17.07 СВ 1 4300 м в посл. час туман {ливн. осадки, дождь} 9/9 240 м
[]
+11.0 +11.0 100 +10 +10 1010.0 1003.3 0.0
01 17.07 В 1 500 м туман 10/10 30 м
[]
+11.1 +11.1 100 +11 +11 1009.7 1002.9
02 17.07 В 1 100 м туман 10/10 30 м
[]
+11.1 +11.1 100 +12 +12 1009.1 1002.4
03 17.07 ЮВ 1 200 м туман ?/? +11.0 +11.0 100 +11 +11 1008.6 1001.8
04 17.07 ЮВ 1 100 м туман 10/10 30 м
[]
+11.2 +11.1 99 +12 +12 1008.1 1001.3
05 17.07 В 1 100 м слаб. дождь {туман} 10/10 30 м
[]
+10.8 +10.8 100 +10 +10 1007.6 1000.8
06 17.07 В 1 200 м туман {ливн. осадки, дождь} ?/? +11.0 +11.0 100 +10 +10 1007.2 1000.5 +10.3 +15.2 0.0
07 17.07 В 1 400 м туман {ливн. осадки, дождь} 10/10 30 м
[]
+11.0 +11.0 100 +11 +11 1006.9 1000.2 0.1
08 17.07 СВ 2 100 м туман 10/10 30 м
[]
+11.1 +11.1 100 +10 +10 1006.6 999.9
09 17.07 СВ 1 300 м туман {ливн. осадки, дождь} ?/? +11.3 +11.3 100 +11 +11 1006.2 999.4 0.1
10 17.07 СВ 2 7000 м в посл. час туман {ливн. осадки, дождь} 9/9 30 м
[]
+11.6 +11.6 100 +11 +12 1005.7 998.9
11 17.07 СВ 2 9000 м дымка 9/9 180 м
[]
+11.9 +11.9 100 +11 +12 1004.9 998.2
12 17.07 С 3 5000 м слаб. ливневой дождь 10/10 60 м
[]
+11.3 +11.2 99 +9 +9 1004.3 997.6 0.0
13 17.07 С 3 4100 м слаб. ливневой дождь 9/9 60 м
[]
+11.2 +11.1 99 +9 +10 1003.7 996.9 1
14 17.07 С 4 3500 м дождь {ливн. осадки} 9/9 30 м
[]
+11.0 +11.0 100 +9 +9 1002.6 995.9 4
15 17.07 С 4 2700 м дождь {ливн. осадки} 9/9 30 м
[]
+10.8 +10.8 100 +8 +9 1001.4 994.7 8
16 17.07 С 2 4900 м слаб. дождь 9/9 60 м
[]
+11.3 +11.3 100 +10 +11 1000.9 994.2 3
17 17.07 С 4 3500 м дождь 9/9 30 м
[]
+10.9 +10.9 100 +8 +9 999.7 993.0 2
18 17.07 С 4 2000 м дождь {ливн. осадки} ?/? +11.2 +11.2 100 +9 +9 998.8 992.1 +10.6 +12.1 5
19 17.07 СВ 3 600 м слаб. ливневой дождь 10/10 30 м
[]
+11.4 +11.4 100 +10 +10 998.3 991.6 0.1
21 17.07 В 1 100 м туман {ливн. осадки, дождь} ?/? +11.0 +10.9 99 +11 +11 998.5 991.8 0.1
22 17.07 СВ 2 100 м туман 10/10 30 м
[]
+10.7 +10.7 100 +10 +10 998.2 991.5
23 17.07 СВ 2 100 м туман 10/10 30 м
[]
+10.7 +10.6 99 +10 +10 998.3 991.6
00 18.07 В 1 200 м туман {ливн. осадки, дождь} ?/? +10.4 +10.4 100 +10 +10 998.4 991.7
01 18.07 ЮВ 2 23 км в посл. час туман 10/10 120 м
[]
+11.1 +11.1 100 +10 +10 998.6 991.9
02 18.07 ЮВ 2 45 км 10/10 330 м
[]
+11.5 +10.4 93 +11 +11 998.6 992.0
03 18.07 В 1 50 км {туман} 10/10 450 м
[]
+12.1 +9.9 86 +13 +13 998.6 992.0
06 18.07 С 1 16 км {туман, дымка} 9/9 750 м
[]
+10.6 +10.2 97 +11 +11 998.6 991.9 +10.2 +12.1
07 18.07 СВ 1 200 м туман {дымка} 10/10 30 м
[]
+10.2 +9.9 98 +10 +10 998.8 992.1
08 18.07 С 1 400 м туман 10/10 60 м
[]
+10.4 +10.4 100 +11 +11 998.9 992.2

 

Местоположение метеостанции Торсхавн (Дания): широта 62.02 долгота -6.77 высота над уровнем моря 61 м.

В архиве по умолчанию представлена погода в Торсхавне за последнюю неделю. Архивные данные за месяц целиком и за предыдущие месяцы, начиная с января 2011 года, Вы можете получить, выбрав интересующий диапазон дат из раскрывающегося списка и нажав кнопку "Ввод!".


*Определитесь, кто Вы:
робот инопланетянин человек

Внимание! Время в таблицах - всемирное. Для получения местного времени необходимо прибавить поправку, которая равна 1 ч.

Смотрите также архив погоды в соседних городах и на ближайших метеорологических станциях:

Погода в Фуглое (Дания) (41 км)
Погода в Акраберге (Дания) (69 км)
Погода на Фуле (Великобритания) (329 км)
Погода в Болтасаунде (Великобритания) (345 км)
Погода на Сул-Скерри (Великобритания) (352 км)
Погода в Леруике (Великобритания) (367 км)
Погода на Фэр-Айл (Великобритания) (393 км)
Погода в Керкуолле (Великобритания) (402 км)
Погода в Сторновее (Великобритания) (423 км)
Погода на Алтнахарре (Великобритания) (436 км)

Пояснения к столбцам:

Ветер - указаны скорость ветра в м/с - средняя за 10 мин, порывы в срок и между сроками (в фигурных скобках) и направление, откуда дует ветер: С - северный, СВ - северо-восточный, В - восточный, ЮВ - юго-восточный, Ю - южный, ЮЗ - юго-западный, З - западный, СЗ - северо-западный.
Видимость - горизонтальная дальность видимости в метрах или километрах. При видимости от 1 до 10 км при отсутствии осадков обычно наблюдается дымка, при ухудшении видимости до 1 км и менее - туман. В сухую погоду видимость может ухудшаться дымом, пылью или мглою.
Явления - указаны атмосферные явления, наблюдавшиеся в срок или в последний час перед сроком; фигурными скобками обозначены явления, наблюдавшиеся между сроками (за 1-3 часа до срока); квадратными скобками обозначены град или гололедные отложения с указанием их диаметра в мм.
Облачность - указаны через наклонную черту общая и нижняя облачность в баллах и высота нижней границы облаков в метрах; квадратными скобками обозначены формы облаков: Ci - перистые, Cs - перисто-слоистые, Cc - перисто-кучевые, Ac - высококучевые, As - высокослоистые, Sc - слоисто-кучевые, Ns - слоисто-дождевые, Cu - кучевые, Cb - кучево-дождевые. Подробнее классификацию облаков см. в Атласе облаков (PDF).
T - Температура воздуха - температура, измеренная на высоте 2 м над землей.
Td - Температура точки росы - температура, при понижении до которой содержащийся в воздухе водяной пар достигнет насыщения.
f - Относительная влажность воздуха - влажноcть воздуха, измеренная на высоте 2 м над землей.
Te - Эффективная температура - температура, которую ощущает одетый по сезону человек в тени. Характеристика душности погоды. При расчете учитывается влияние влажности воздуха и скорости ветра на теплоощущения человека.
Tes - Эффективная температура на солнце - температура, которую ощущает человек, с поправкой на солнечный нагрев. Характеристика знойности погоды. Зависит от высоты солнца над горизонтом, облачности и скорости ветра. Ночью, в пасмурную погоду, а также при ветре 12 м/с и более поправка равна нулю.
P - Атмосферное давление - приведенное к уровню моря атмосферное давление.
Po - Атмосферное давление - измеренное на уровне метеостанции атмосферное давление.
Tmin - Минимальная температура - минимум температуры воздуха на высоте 2 м над землей.
Tmax - Максимальная температура - максимум температуры воздуха на высоте 2 м над землей.
R - Количество осадков - Количество выпавших осадков за период времени, мм. При наведении курсора мыши на число - период времени, за который выпало указанное количество осадков.
R24 - Количество осадков - Количество выпавших осадков за 24 часа, мм.
S - Снежный покров - Высота снежного покрова, см. При наведении курсора мыши на число - состояние снежного покрова и степень покрытия местности в баллах.